Tracking 33208 objects as of 15-Feb-2026
HD Live streaming from Space Station
objects crossing your sky now

DELTA 1 DEB (YO)

Track DELTA 1 DEB (YO) now!
10-day predictions


NORAD ID: 167
Int'l Code: 1961-017D
Perigee: 753.7 km
Apogee: 883.5 km
Inclination: 47.8 °
Period: 101.1 minutes
Semi major axis: 7189 km
RCS: 0.047 m2 (small)
Launch date: July 12, 1961
Source: United States (US)
Launch site: AIR FORCE EASTERN TEST RANGE (AFETR)

Note: This is SATELLITE DEBRIS
Your satellite tracking list
Your tracking list is empty




NASA's NSSDC Master Catalog

Two Line Element Set (TLE):
1   167U 61017D   26045.53825633  .00000301  00000-0  18773-3 0  9994
2   167  47.8440 227.4749 0090296 329.1576  30.4022 14.24117198347190
Source of the keplerian elements: AFSPC